{"data":{"norad_id":53290,"intl_designator":"2022-086BA","name":"STARLINK-4149","alt_names":[],"object_type":"PAYLOAD","status":"ACTIVE","operator":null,"country":"US","launch_date":"2022-07-24","launch_site_code":"AFETR","launch_vehicle":null,"mission":null,"orbit_class":"UNKNOWN","rcs_meters":null,"size_class":null,"mass_kg":null,"dimensions":null,"purposes":["comms"],"wikipedia_slug":null,"has_3d_model":false,"image_url":null,"decayed_at":null,"tle_current":{"epoch":"2026-05-24T21:32:30.962976Z","epoch_age_seconds":77784,"freshness":"FRESH","line1":"1 53290U 22086BA  26144.89758059  .00001229  00000+0  95192-4 0  9998","line2":"2 53290  53.2159 202.0134 0001054  76.5040 283.6070 15.08878705212695","mean_motion":15.08878705,"eccentricity":0.0001054,"inclination_deg":53.2159,"raan_deg":202.0134,"arg_perigee_deg":76.504,"mean_anomaly_deg":283.607,"bstar":9.5192e-5,"rev_number":21269,"period_min":95.435106561465,"perigee_km":538.89595366837,"apogee_km":540.35421791606,"semimajor_km":6917.7620857922,"source":"CELESTRAK","updated_at":"2026-05-25T13:38:17.391355Z"}}}